,,Stat6,,Stat2,,Stat8,,Stat9,,Stat10,,Wind1,,Wind1,
time,status,PA1M_AVG,status,PR1M_SUM,status,RH1M_AVG,status,SR1M_AVG,status,TA1M_AVG,status,W1dAve1m,status,W1sAve1m,
2004-05-10, 00:00:00,VALID,917.547,VALID,0,VALID,99.7447,VALID,0.0849042,VALID,19.3763,VALID,126,VALID,0.966992,
2004-05-10, 00:01:00,VALID,917.559,VALID,0,VALID,99.6798,VALID,0.0509425,VALID,19.3768,VALID,126,VALID,0.973544,
2004-05-10, 00:02:00,VALID,917.567,VALID,0,VALID,99.883,VALID,0.0509425,VALID,19.3868,VALID,127,VALID,0.991168,
2004-05-10, 00:03:00,VALID,917.571,VALID,0,VALID,99.944,VALID,0.0679233,VALID,19.4287,VALID,129,VALID,0.84358,
2004-05-10, 00:04:00,VALID,917.58,VALID,0,VALID,99.957,VALID,-0.0849042,VALID,19.4528,VALID,143,VALID,0.802083,
2004-05-10, 00:05:00,VALID,917.574,VALID,0,VALID,99.9443,VALID,-0.0509425,VALID,19.4945,VALID,145,VALID,0.81157,
2004-05-10, 00:06:00,VALID,917.567,VALID,0,VALID,99.7968,VALID,-0.0509425,VALID,19.5045,VALID,145,VALID,0.828869,
2004-05-10, 00:07:00,VALID,917.548,VALID,0,VALID,99.6646,VALID,-0.0679233,VALID,19.4908,VALID,147,VALID,0.906064,
2004-05-10, 00:08:00,VALID,917.53,VALID,0,VALID,99.6175,VALID,-0.0509425,VALID,19.504,VALID,148,VALID,0.828506,
2004-05-10, 00:09:00,VALID,917.519,VALID,0,VALID,99.5972,VALID,-0.0339617,VALID,19.5137,VALID,145,VALID,0.990141,
2004-05-10, 00:10:00,VALID,917.51,VALID,0,VALID,99.5819,VALID,-0.0509425,VALID,19.54,VALID,146,VALID,1.05124,
2004-05-10, 00:11:00,VALID,917.5,VALID,0,VALID,99.5972,VALID,-0.0509425,VALID,19.5499,VALID,138,VALID,1.20403,
2004-05-10, 00:12:00,VALID,917.49,VALID,0,VALID,99.5616,VALID,-0.0339617,VALID,19.5552,VALID,134,VALID,1.11682,
2004-05-10, 00:13:00,VALID,917.491,VALID,0,VALID,99.2742,VALID,-0.0509425,VALID,19.5494,VALID,126,VALID,1.14881,
2004-05-10, 00:14:00,VALID,917.478,VALID,0,VALID,99.1292,VALID,-0.0339617,VALID,19.533,VALID,128,VALID,1.2779,
2004-05-10, 00:15:00,VALID,917.468,VALID,0,VALID,99.0911,VALID,-0.101885,VALID,19.5206,VALID,129,VALID,1.30545,
2004-05-10, 00:16:00,VALID,917.465,VALID,0,VALID,98.9728,VALID,-0.0679233,VALID,19.5206,VALID,122,VALID,1.23047,
2004-05-10, 00:17:00,VALID,917.461,VALID,0,VALID,98.8965,VALID,-0.0849042,VALID,19.5008,VALID,121,VALID,1.12863,
2004-05-10, 00:18:00,VALID,917.463,VALID,0,VALID,98.9804,VALID,-0.0339617,VALID,19.504,VALID,121,VALID,1.24628,
2004-05-10, 00:19:00,VALID,917.468,VALID,0,VALID,98.9283,VALID,0,VALID,19.5032,VALID,113,VALID,1.02031,
2004-05-10, 00:20:00,VALID,917.474,VALID,0,VALID,98.8456,VALID,0,VALID,19.5005,VALID,109,VALID,0.956032,
2004-05-10, 00:21:00,VALID,917.477,VALID,0,VALID,98.9168,VALID,0,VALID,19.5075,VALID,110,VALID,1.10193,
2004-05-10, 00:22:00,VALID,917.482,VALID,0,VALID,98.8062,VALID,0,VALID,19.504,VALID,117,VALID,0.861914,
2004-05-10, 00:23:00,VALID,917.482,VALID,0,VALID,98.6892,VALID,-0.0169808,VALID,19.504,VALID,116,VALID,0.831321,
2004-05-10, 00:24:00,VALID,917.475,VALID,0,VALID,98.5672,VALID,-0.0169808,VALID,19.4876,VALID,120,VALID,0.62138,
2004-05-10, 00:25:00,VALID,917.47,VALID,0,VALID,98.4387,VALID,0.0169808,VALID,19.4714,VALID,129,VALID,0.577778,
2004-05-10, 00:26:00,VALID,917.458,VALID,0,VALID,98.4425,VALID,-0.0169808,VALID,19.4555,VALID,135,VALID,0.731445,
2004-05-10, 00:27:00,VALID,917.451,VALID,0,VALID,98.4387,VALID,0,VALID,19.4521,VALID,135,VALID,0.664418,
2004-05-10, 00:28:00,VALID,917.451,VALID,0,VALID,98.4578,VALID,0,VALID,19.4454,VALID,135,VALID,0.785714,
2004-05-10, 00:29:00,VALID,917.446,VALID,0,VALID,98.4171,VALID,0,VALID,19.459,VALID,135,VALID,0.559048,
2004-05-10, 00:30:00,VALID,917.438,VALID,0,VALID,98.2594,VALID,0,VALID,19.4424,VALID,135,VALID,0.497768,
2004-05-10, 00:31:00,VALID,917.433,VALID,0,VALID,98.0661,VALID,-0.0169808,VALID,19.4069,VALID,134,VALID,0.589666,
2004-05-10, 00:32:00,VALID,917.43,VALID,0,VALID,98.173,VALID,-0.0169808,VALID,19.3872,VALID,124,VALID,0.753811,
2004-05-10, 00:33:00,VALID,917.441,VALID,0,VALID,98.4718,VALID,0,VALID,19.3907,VALID,120,VALID,0.667361,
2004-05-10, 00:34:00,VALID,917.445,VALID,0,VALID,98.8202,VALID,0,VALID,19.4424,VALID,119,VALID,0.790591,
2004-05-10, 00:35:00,VALID,917.458,VALID,0,VALID,98.927,VALID,0,VALID,19.4682,VALID,120,VALID,0.852095,
2004-05-10, 00:36:00,VALID,917.457,VALID,0,VALID,99.1114,VALID,-0.0169808,VALID,19.5134,VALID,120,VALID,0.860618,
2004-05-10, 00:37:00,VALID,917.455,VALID,0,VALID,99.1025,VALID,0,VALID,19.5519,VALID,118,VALID,0.701637,
2004-05-10, 00:38:00,VALID,917.441,VALID,0,VALID,98.7261,VALID,-0.0169808,VALID,19.5457,VALID,117,VALID,0.731771,
2004-05-10, 00:39:00,VALID,917.411,VALID,0,VALID,98.5761,VALID,0,VALID,19.5263,VALID,118,VALID,0.932927,
2004-05-10, 00:40:00,VALID,917.403,VALID,0,VALID,98.5837,VALID,0,VALID,19.497,VALID,114,VALID,0.945313,
2004-05-10, 00:41:00,VALID,917.383,VALID,0,VALID,98.6485,VALID,0,VALID,19.5102,VALID,102,VALID,0.981179,
2004-05-10, 00:42:00,VALID,917.359,VALID,0,VALID,98.7248,VALID,0,VALID,19.5134,VALID,106,VALID,0.99721,
2004-05-10, 00:43:00,VALID,917.358,VALID,0,VALID,98.5799,VALID,0.0169808,VALID,19.5003,VALID,105,VALID,0.927455,
2004-05-10, 00:44:00,VALID,917.356,VALID,0,VALID,98.6002,VALID,-0.0169808,VALID,19.4948,VALID,118,VALID,0.710938,
2004-05-10, 00:45:00,VALID,917.354,VALID,0,VALID,98.5163,VALID,0.0339617,VALID,19.4585,VALID,114,VALID,0.751817,
2004-05-10, 00:46:00,VALID,917.35,VALID,0,VALID,98.6066,VALID,0,VALID,19.42,VALID,91,VALID,0.820668,
2004-05-10, 00:47:00,VALID,917.356,VALID,0,VALID,98.7757,VALID,0,VALID,19.4069,VALID,101,VALID,0.770833,
2004-05-10, 00:48:00,VALID,917.345,VALID,0,VALID,98.5837,VALID,0,VALID,19.3649,VALID,75,VALID,1.06076,
2004-05-10, 00:49:00,VALID,917.323,VALID,0,VALID,98.5977,VALID,0,VALID,19.3033,VALID,68,VALID,1.20666,
2004-05-10, 00:50:00,VALID,917.302,VALID,0,VALID,98.9792,VALID,0,VALID,19.313,VALID,61,VALID,1.1968,
2004-05-10, 00:51:00,VALID,917.29,VALID,0,VALID,98.8266,VALID,0.0169808,VALID,19.3005,VALID,79,VALID,1.08426,
2004-05-10, 00:52:00,VALID,917.294,VALID,0,VALID,98.6396,VALID,0,VALID,19.2424,VALID,108,VALID,1.00505,
2004-05-10, 00:53:00,VALID,917.285,VALID,0,VALID,98.9779,VALID,0,VALID,19.2101,VALID,109,VALID,1.0362,
2004-05-10, 00:54:00,VALID,917.292,VALID,0,VALID,99.1203,VALID,0,VALID,19.1652,VALID,114,VALID,0.754836,
2004-05-10, 00:55:00,VALID,917.282,VALID,0,VALID,99.2907,VALID,0,VALID,19.1165,VALID,101,VALID,0.880526,
2004-05-10, 00:56:00,VALID,917.277,VALID,0,VALID,99.4509,VALID,-0.0339617,VALID,19.0842,VALID,121,VALID,0.911701,
2004-05-10, 00:57:00,VALID,917.273,VALID,0,VALID,99.6493,VALID,0,VALID,19.039,VALID,132,VALID,0.995164,
2004-05-10, 00:58:00,VALID,917.259,VALID,0,VALID,99.8566,VALID,0,VALID,19.0263,VALID,132,VALID,0.75279,
2004-05-10, 00:59:00,VALID,917.253,VALID,0,VALID,99.9685,VALID,0,VALID,18.9998,VALID,134,VALID,0.838663,
2004-05-10, 01:00:00,VALID,917.25,VALID,0,VALID,99.9443,VALID,-0.0169808,VALID,18.9777,VALID,119,VALID,0.653832,
2004-05-10, 01:01:00,VALID,917.262,VALID,0,VALID,99.9934,VALID,0,VALID,18.929,VALID,121,VALID,0.876999,
2004-05-10, 01:02:00,VALID,917.263,VALID,0,VALID,100,VALID,0.0169808,VALID,18.9163,VALID,121,VALID,0.920732,
2004-05-10, 01:03:00,VALID,917.263,VALID,0,VALID,100,VALID,-0.0169808,VALID,18.9071,VALID,115,VALID,0.790879,
2004-05-10, 01:04:00,VALID,917.251,VALID,0,VALID,100,VALID,-0.101885,VALID,18.8817,VALID,103,VALID,0.86875,
2004-05-10, 01:05:00,VALID,917.227,VALID,0,VALID,100,VALID,-0.101885,VALID,18.8783,VALID,96,VALID,1.08085,
2004-05-10, 01:06:00,VALID,917.201,VALID,0,VALID,100,VALID,-0.101885,VALID,18.8755,VALID,93,VALID,1.16552,
2004-05-10, 01:07:00,VALID,917.192,VALID,0,VALID,100,VALID,-0.101885,VALID,18.8882,VALID,82,VALID,0.808117,
2004-05-10, 01:08:00,VALID,917.185,VALID,0,VALID,100,VALID,-0.101885,VALID,18.8822,VALID,92,VALID,0.912574,
2004-05-10, 01:09:00,VALID,917.176,VALID,0,VALID,100,VALID,-0.0679233,VALID,18.8817,VALID,110,VALID,0.589939,
2004-05-10, 01:10:00,VALID,917.181,VALID,0,VALID,100,VALID,-0.101885,VALID,18.8917,VALID,96,VALID,0.792578,
2004-05-10, 01:11:00,VALID,917.197,VALID,0,VALID,100,VALID,-0.101885,VALID,18.9237,VALID,101,VALID,0.785974,
2004-05-10, 01:12:00,VALID,917.204,VALID,0,VALID,100,VALID,-0.101885,VALID,18.9558,VALID,92,VALID,0.871548,
2004-05-10, 01:13:00,VALID,917.184,VALID,0,VALID,100,VALID,-0.0849042,VALID,18.9821,VALID,91,VALID,0.846227,
2004-05-10, 01:14:00,VALID,917.191,VALID,0,VALID,100,VALID,-0.101885,VALID,19.0275,VALID,98,VALID,0.90263,
2004-05-10, 01:15:00,VALID,917.187,VALID,0,VALID,100,VALID,-0.101885,VALID,19.0693,VALID,95,VALID,0.788281,
2004-05-10, 01:16:00,VALID,917.186,VALID,0,VALID,100,VALID,-0.0849042,VALID,19.1013,VALID,106,VALID,0.825107,
2004-05-10, 01:17:00,VALID,917.185,VALID,0,VALID,99.9865,VALID,-0.101885,VALID,19.15,VALID,102,VALID,0.895419,
2004-05-10, 01:18:00,VALID,917.181,VALID,0,VALID,99.7243,VALID,-0.0849042,VALID,19.1691,VALID,91,VALID,0.707889,
2004-05-10, 01:19:00,VALID,917.16,VALID,0,VALID,99.4242,VALID,0,VALID,19.1841,VALID,93,VALID,0.758878,
2004-05-10, 01:20:00,VALID,917.132,VALID,0,VALID,99.0707,VALID,0,VALID,19.1942,VALID,74,VALID,0.875545,
2004-05-10, 01:21:00,VALID,917.13,VALID,0,VALID,98.7579,VALID,0,VALID,19.1647,VALID,76,VALID,0.670015,
2004-05-10, 01:22:00,VALID,917.118,VALID,0,VALID,98.5811,VALID,-0.0169808,VALID,19.1619,VALID,102,VALID,0.616319,
2004-05-10, 01:23:00,VALID,917.126,VALID,0,VALID,98.5125,VALID,0,VALID,19.1485,VALID,112,VALID,0.731318,
2004-05-10, 01:24:00,VALID,917.131,VALID,0,VALID,98.3395,VALID,0,VALID,19.1393,VALID,103,VALID,0.624256,
2004-05-10, 01:25:00,VALID,917.131,VALID,0,VALID,98.3891,VALID,0,VALID,19.1197,VALID,107,VALID,0.947409,
2004-05-10, 01:26:00,VALID,917.126,VALID,0,VALID,98.4845,VALID,0,VALID,19.11,VALID,91,VALID,0.790334,
2004-05-10, 01:27:00,VALID,917.112,VALID,0,VALID,98.5277,VALID,-0.0169808,VALID,19.1167,VALID,108,VALID,0.844727,
2004-05-10, 01:28:00,VALID,917.094,VALID,0,VALID,98.5494,VALID,-0.0169808,VALID,19.1165,VALID,110,VALID,0.65625,
2004-05-10, 01:29:00,VALID,917.08,VALID,0,VALID,98.4158,VALID,0,VALID,19.1001,VALID,110,VALID,0.793056,
2004-05-10, 01:30:00,VALID,917.052,VALID,0,VALID,98.4832,VALID,-0.0169808,VALID,19.0877,VALID,118,VALID,1.12612,
2004-05-10, 01:31:00,VALID,917.047,VALID,0,VALID,98.3599,VALID,0,VALID,19.0777,VALID,116,VALID,0.927871,
2004-05-10, 01:32:00,VALID,917.033,VALID,0,VALID,98.3268,VALID,0,VALID,19.0586,VALID,117,VALID,0.923692,
2004-05-10, 01:33:00,VALID,917.033,VALID,0,VALID,98.3866,VALID,-0.0169808,VALID,19.0162,VALID,119,VALID,1.11235,
2004-05-10, 01:34:00,VALID,917.034,VALID,0,VALID,98.3853,VALID,0,VALID,19.007,VALID,113,VALID,1.0427,
2004-05-10, 01:35:00,VALID,917.029,VALID,0,VALID,98.5964,VALID,0.0169808,VALID,19.0102,VALID,111,VALID,1.23918,
2004-05-10, 01:36:00,VALID,917.038,VALID,0,VALID,98.4667,VALID,0,VALID,19.0037,VALID,112,VALID,1.10636,
2004-05-10, 01:37:00,VALID,917.046,VALID,0,VALID,98.4387,VALID,0.0169808,VALID,18.9844,VALID,108,VALID,1.10268,
2004-05-10, 01:38:00,VALID,917.05,VALID,0,VALID,98.4489,VALID,0,VALID,18.9454,VALID,106,VALID,0.930831,
2004-05-10, 01:39:00,VALID,917.037,VALID,0,VALID,98.6244,VALID,-0.0169808,VALID,18.9034,VALID,98,VALID,0.933254,
2004-05-10, 01:40:00,VALID,917.024,VALID,0,VALID,98.791,VALID,0,VALID,18.8778,VALID,93,VALID,0.75185,
2004-05-10, 01:41:00,VALID,917.037,VALID,0,VALID,98.9296,VALID,-0.0169808,VALID,18.852,VALID,91,VALID,0.952553,
2004-05-10, 01:42:00,VALID,917.05,VALID,0,VALID,99.0427,VALID,0,VALID,18.8326,VALID,106,VALID,1.0106,
2004-05-10, 01:43:00,VALID,917.06,VALID,0,VALID,99.1241,VALID,0,VALID,18.8065,VALID,111,VALID,1.13082,
2004-05-10, 01:44:00,VALID,917.062,VALID,0,VALID,99.0783,VALID,0,VALID,18.7676,VALID,111,VALID,1.03274,
2004-05-10, 01:45:00,VALID,917.057,VALID,0,VALID,99.1572,VALID,0,VALID,18.7226,VALID,101,VALID,0.866016,
2004-05-10, 01:46:00,VALID,917.035,VALID,0,VALID,99.3886,VALID,0,VALID,18.7032,VALID,92,VALID,0.804888,
2004-05-10, 01:47:00,VALID,917.04,VALID,0,VALID,99.4191,VALID,-0.0169808,VALID,18.7007,VALID,95,VALID,1.09266,
2004-05-10, 01:48:00,VALID,917.022,VALID,0,VALID,99.4268,VALID,0,VALID,18.6945,VALID,97,VALID,1.12972,
2004-05-10, 01:49:00,VALID,917.027,VALID,0,VALID,99.3556,VALID,-0.0339617,VALID,18.6873,VALID,110,VALID,1.31528,
2004-05-10, 01:50:00,VALID,917.029,VALID,0,VALID,99.1381,VALID,-0.0169808,VALID,18.6806,VALID,104,VALID,1.12483,
2004-05-10, 01:51:00,VALID,917.03,VALID,0,VALID,98.8952,VALID,-0.0169808,VALID,18.6617,VALID,108,VALID,1.13228,
2004-05-10, 01:52:00,VALID,917.032,VALID,0,VALID,98.8177,VALID,-0.0339617,VALID,18.6486,VALID,109,VALID,1.40123,
2004-05-10, 01:53:00,VALID,917.022,VALID,0,VALID,98.6511,VALID,-0.0169808,VALID,18.6421,VALID,105,VALID,1.36028,
2004-05-10, 01:54:00,VALID,916.986,VALID,0,VALID,98.4959,VALID,-0.0509425,VALID,18.6493,VALID,102,VALID,1.45873,
2004-05-10, 01:55:00,VALID,916.949,VALID,0,VALID,98.4324,VALID,0,VALID,18.652,VALID,93,VALID,1.35247,
2004-05-10, 01:56:00,VALID,916.935,VALID,0,VALID,98.2887,VALID,-0.0169808,VALID,18.6686,VALID,86,VALID,1.28981,
2004-05-10, 01:57:00,VALID,916.91,VALID,0,VALID,98.1424,VALID,-0.0169808,VALID,18.6488,VALID,87,VALID,1.27108,
2004-05-10, 01:58:00,VALID,916.918,VALID,0,VALID,98.0483,VALID,-0.0169808,VALID,18.6555,VALID,90,VALID,1.29928,
2004-05-10, 01:59:00,VALID,916.909,VALID,0,VALID,97.9581,VALID,-0.0169808,VALID,18.6493,VALID,95,VALID,1.08975,
2004-05-10, 02:00:00,VALID,916.886,VALID,0,VALID,98.3141,VALID,-0.0169808,VALID,18.6361,VALID,104,VALID,1.31267,
2004-05-10, 02:01:00,VALID,916.867,VALID,0,VALID,98.482,VALID,-0.0169808,VALID,18.6327,VALID,103,VALID,1.30354,
2004-05-10, 02:02:00,VALID,916.846,VALID,0,VALID,98.5379,VALID,0,VALID,18.6234,VALID,85,VALID,1.11357,
2004-05-10, 02:03:00,VALID,916.808,VALID,0,VALID,98.3993,VALID,-0.0169808,VALID,18.5882,VALID,82,VALID,1.10156,
2004-05-10, 02:04:00,VALID,916.782,VALID,0,VALID,98.7706,VALID,-0.0169808,VALID,18.575,VALID,88,VALID,1.2939,
2004-05-10, 02:05:00,VALID,916.753,VALID,0,VALID,99.1648,VALID,-0.0339617,VALID,18.5748,VALID,114,VALID,1.2951,
2004-05-10, 02:06:00,VALID,916.752,VALID,0,VALID,99.3161,VALID,-0.0169808,VALID,18.5556,VALID,114,VALID,1.25,
2004-05-10, 02:07:00,VALID,916.737,VALID,0,VALID,99.4039,VALID,0,VALID,18.504,VALID,121,VALID,1.05876,
2004-05-10, 02:08:00,VALID,916.751,VALID,0,VALID,99.6684,VALID,0,VALID,18.4449,VALID,125,VALID,1.13914,
2004-05-10, 02:09:00,VALID,916.748,VALID,0,VALID,99.7981,VALID,0,VALID,18.4394,VALID,117,VALID,0.927083,
2004-05-10, 02:10:00,VALID,916.742,VALID,0,VALID,99.7739,VALID,-0.0339617,VALID,18.3908,VALID,95,VALID,0.863791,
2004-05-10, 02:11:00,VALID,916.739,VALID,0,VALID,99.9776,VALID,0,VALID,18.3818,VALID,109,VALID,1.04805,
2004-05-10, 02:12:00,VALID,916.726,VALID,0,VALID,100,VALID,0,VALID,18.3938,VALID,115,VALID,1.21317,
2004-05-10, 02:13:00,VALID,916.725,VALID,0,VALID,100,VALID,0,VALID,18.4357,VALID,115,VALID,1.07994,
2004-05-10, 02:14:00,VALID,916.736,VALID,0,VALID,100,VALID,0,VALID,18.4456,VALID,118,VALID,0.814546,
2004-05-10, 02:15:00,VALID,916.729,VALID,0,VALID,100,VALID,-0.0339617,VALID,18.433,VALID,121,VALID,0.971475,
2004-05-10, 02:16:00,VALID,916.745,VALID,0,VALID,100,VALID,-0.0509425,VALID,18.4136,VALID,122,VALID,0.889266,
2004-05-10, 02:17:00,VALID,916.761,VALID,0,VALID,99.999,VALID,-0.0339617,VALID,18.3942,VALID,122,VALID,0.766211,
2004-05-10, 02:18:00,VALID,916.768,VALID,0,VALID,99.9791,VALID,-0.0339617,VALID,18.388,VALID,119,VALID,0.774479,
2004-05-10, 02:19:00,VALID,916.774,VALID,0,VALID,99.854,VALID,-0.0169808,VALID,18.3749,VALID,124,VALID,0.734375,
2004-05-10, 02:20:00,VALID,916.785,VALID,0,VALID,99.7319,VALID,-0.0169808,VALID,18.3615,VALID,127,VALID,0.64755,
2004-05-10, 02:21:00,VALID,916.77,VALID,0,VALID,99.6709,VALID,-0.0339617,VALID,18.3749,VALID,138,VALID,0.89974,
2004-05-10, 02:22:00,VALID,916.766,VALID,0,VALID,99.5476,VALID,0,VALID,18.3813,VALID,135,VALID,0.918605,
2004-05-10, 02:23:00,VALID,916.744,VALID,0,VALID,99.5081,VALID,0,VALID,18.3945,VALID,133,VALID,1.07403,
2004-05-10, 02:24:00,VALID,916.741,VALID,0,VALID,99.3568,VALID,0,VALID,18.3938,VALID,116,VALID,1.02534,
2004-05-10, 02:25:00,VALID,916.729,VALID,0,VALID,99.1712,VALID,0,VALID,18.3813,VALID,106,VALID,0.675327,
2004-05-10, 02:26:00,VALID,916.749,VALID,0,VALID,99.2297,VALID,-0.0169808,VALID,18.3776,VALID,105,VALID,0.689098,
2004-05-10, 02:27:00,VALID,916.745,VALID,0,VALID,99.2424,VALID,-0.0339617,VALID,18.3912,VALID,97,VALID,0.841518,
2004-05-10, 02:28:00,VALID,916.75,VALID,0,VALID,99.1139,VALID,-0.0339617,VALID,18.4143,VALID,95,VALID,0.732372,
2004-05-10, 02:29:00,VALID,916.759,VALID,0,VALID,99.0542,VALID,-0.0509425,VALID,18.4233,VALID,84,VALID,0.751529,
2004-05-10, 02:30:00,VALID,916.762,VALID,0,VALID,98.9652,VALID,-0.0509425,VALID,18.456,VALID,84,VALID,0.863095,
2004-05-10, 02:31:00,VALID,916.755,VALID,0,VALID,98.7897,VALID,-0.0169808,VALID,18.4943,VALID,97,VALID,0.95367,
2004-05-10, 02:32:00,VALID,916.763,VALID,0,VALID,98.487,VALID,-0.0339617,VALID,18.5397,VALID,103,VALID,1.06741,
2004-05-10, 02:33:00,VALID,916.768,VALID,0,VALID,98.0496,VALID,-0.0339617,VALID,18.5852,VALID,101,VALID,0.925781,
2004-05-10, 02:34:00,VALID,916.775,VALID,0,VALID,97.6185,VALID,-0.0169808,VALID,18.6078,VALID,90,VALID,0.662246,
2004-05-10, 02:35:00,VALID,916.76,VALID,0,VALID,97.2345,VALID,-0.0679233,VALID,18.614,VALID,107,VALID,0.684896,
2004-05-10, 02:36:00,VALID,916.752,VALID,0,VALID,97.0247,VALID,-0.0509425,VALID,18.6043,VALID,99,VALID,0.689258,
2004-05-10, 02:37:00,VALID,916.748,VALID,0,VALID,96.9993,VALID,-0.0169808,VALID,18.6078,VALID,89,VALID,0.631963,
2004-05-10, 02:38:00,VALID,916.729,VALID,0,VALID,96.9204,VALID,-0.0339617,VALID,18.5976,VALID,87,VALID,0.988839,
2004-05-10, 02:39:00,VALID,916.704,VALID,0,VALID,96.7653,VALID,-0.0339617,VALID,18.6011,VALID,91,VALID,0.907812,
2004-05-10, 02:40:00,VALID,916.7,VALID,0,VALID,96.6038,VALID,-0.0169808,VALID,18.6299,VALID,83,VALID,0.965588,
2004-05-10, 02:41:00,VALID,916.678,VALID,0,VALID,96.4067,VALID,-0.0169808,VALID,18.6527,VALID,93,VALID,1.24291,
2004-05-10, 02:42:00,VALID,916.653,VALID,0,VALID,96.263,VALID,0,VALID,18.7044,VALID,98,VALID,1.30043,
2004-05-10, 02:43:00,VALID,916.644,VALID,0,VALID,95.9896,VALID,0,VALID,18.7332,VALID,99,VALID,1.13872,
2004-05-10, 02:44:00,VALID,916.644,VALID,0,VALID,95.7823,VALID,0,VALID,18.7431,VALID,95,VALID,1.14653,
2004-05-10, 02:45:00,VALID,916.657,VALID,0,VALID,95.8141,VALID,-0.0169808,VALID,18.7339,VALID,91,VALID,1.12407,
2004-05-10, 02:46:00,VALID,916.644,VALID,0,VALID,95.9553,VALID,0,VALID,18.688,VALID,78,VALID,0.965843,
2004-05-10, 02:47:00,VALID,916.651,VALID,0,VALID,96.1829,VALID,0,VALID,18.6691,VALID,82,VALID,1.03553,
2004-05-10, 02:48:00,VALID,916.659,VALID,0,VALID,96.3012,VALID,-0.0339617,VALID,18.6175,VALID,87,VALID,0.84654,
2004-05-10, 02:49:00,VALID,916.671,VALID,0,VALID,96.6623,VALID,-0.0169808,VALID,18.5877,VALID,89,VALID,0.823219,
2004-05-10, 02:50:00,VALID,916.686,VALID,0,VALID,96.7259,VALID,-0.0509425,VALID,18.5593,VALID,98,VALID,0.723437,
2004-05-10, 02:51:00,VALID,916.694,VALID,0,VALID,96.8467,VALID,-0.0339617,VALID,18.5047,VALID,97,VALID,0.609561,
2004-05-10, 02:52:00,VALID,916.707,VALID,0,VALID,97.0972,VALID,-0.0679233,VALID,18.459,VALID,96,VALID,0.78218,
2004-05-10, 02:53:00,VALID,916.713,VALID,0,VALID,97.2867,VALID,-0.0509425,VALID,18.4339,VALID,106,VALID,0.781977,
2004-05-10, 02:54:00,VALID,916.709,VALID,0,VALID,97.4748,VALID,-0.0339617,VALID,18.4113,VALID,91,VALID,0.690874,
2004-05-10, 02:55:00,VALID,916.711,VALID,0,VALID,97.5791,VALID,-0.0679233,VALID,18.3822,VALID,105,VALID,0.77793,
2004-05-10, 02:56:00,VALID,916.725,VALID,0,VALID,97.6465,VALID,-0.0679233,VALID,18.3562,VALID,107,VALID,0.840402,
2004-05-10, 02:57:00,VALID,916.727,VALID,0,VALID,97.7571,VALID,-0.0679233,VALID,18.3331,VALID,110,VALID,0.982422,
2004-05-10, 02:58:00,VALID,916.718,VALID,0,VALID,97.8487,VALID,-0.0509425,VALID,18.3562,VALID,116,VALID,1.02237,
2004-05-10, 02:59:00,VALID,916.718,VALID,0,VALID,97.8881,VALID,-0.0679233,VALID,18.3721,VALID,106,VALID,1.16491,
2004-05-10, 03:00:00,VALID,916.732,VALID,0,VALID,97.8017,VALID,-0.0169808,VALID,18.4212,VALID,107,VALID,1.05678,
2004-05-10, 03:01:00,VALID,916.737,VALID,0,VALID,97.5054,VALID,-0.0849042,VALID,18.4369,VALID,105,VALID,0.708274,
2004-05-10, 03:02:00,VALID,916.739,VALID,0,VALID,97.1875,VALID,-0.0679233,VALID,18.456,VALID,105,VALID,0.602095,
2004-05-10, 03:03:00,VALID,916.762,VALID,0,VALID,97.0044,VALID,-0.0339617,VALID,18.4496,VALID,110,VALID,0.571484,
2004-05-10, 03:04:00,VALID,916.765,VALID,0,VALID,96.8734,VALID,-0.0339617,VALID,18.4496,VALID,112,VALID,0.427689,
2004-05-10, 03:05:00,VALID,916.764,VALID,0,VALID,96.7755,VALID,-0.0339617,VALID,18.453,VALID,112,VALID,0.403764,
2004-05-10, 03:06:00,VALID,916.764,VALID,0,VALID,96.5707,VALID,-0.0509425,VALID,18.4629,VALID,112,VALID,0.293423,
2004-05-10, 03:07:00,VALID,916.767,VALID,0,VALID,96.4105,VALID,-0.0679233,VALID,18.4237,VALID,112,VALID,0.417873,
2004-05-10, 03:08:00,VALID,916.742,VALID,0,VALID,96.3686,VALID,-0.0339617,VALID,18.4177,VALID,112,VALID,0.548437,
2004-05-10, 03:09:00,VALID,916.734,VALID,0,VALID,95.5191,VALID,0.0679233,VALID,18.349,VALID,104,VALID,0.558333,
2004-05-10, 03:10:00,VALID,916.733,VALID,0,VALID,95.0435,VALID,0.0849042,VALID,18.1839,VALID,100,VALID,0.411395,
2004-05-10, 03:11:00,VALID,916.738,VALID,0,VALID,95.8256,VALID,0.0849042,VALID,18.0903,VALID,100,VALID,0.476749,
2004-05-10, 03:12:00,VALID,916.74,VALID,0,VALID,96.7793,VALID,0.0679233,VALID,18.0739,VALID,101,VALID,0.566315,
2004-05-10, 03:13:00,VALID,916.753,VALID,0,VALID,97.3566,VALID,0.0679233,VALID,18.0993,VALID,102,VALID,0.767912,
2004-05-10, 03:14:00,VALID,916.76,VALID,0,VALID,97.5766,VALID,0.0679233,VALID,18.1514,VALID,89,VALID,0.887005,
2004-05-10, 03:15:00,VALID,916.766,VALID,0,VALID,97.5384,VALID,0.0509425,VALID,18.2068,VALID,88,VALID,1.05664,
2004-05-10, 03:16:00,VALID,916.78,VALID,0,VALID,97.2803,VALID,0.0509425,VALID,18.2681,VALID,90,VALID,0.89098,
2004-05-10, 03:17:00,VALID,916.789,VALID,0,VALID,97.04,VALID,0.0679233,VALID,18.3197,VALID,89,VALID,1.00686,
2004-05-10, 03:18:00,VALID,916.795,VALID,0,VALID,96.839,VALID,0.0849042,VALID,18.3716,VALID,94,VALID,0.934048,
2004-05-10, 03:19:00,VALID,916.81,VALID,0,VALID,96.6419,VALID,-0.0169808,VALID,18.3954,VALID,105,VALID,0.959077,
2004-05-10, 03:20:00,VALID,916.836,VALID,0,VALID,96.455,VALID,-0.0509425,VALID,18.3947,VALID,106,VALID,0.911632,
2004-05-10, 03:21:00,VALID,916.853,VALID,0,VALID,96.3762,VALID,0,VALID,18.385,VALID,119,VALID,0.960379,
2004-05-10, 03:22:00,VALID,916.87,VALID,0,VALID,96.6572,VALID,-0.0169808,VALID,18.3686,VALID,121,VALID,1.31117,
2004-05-10, 03:23:00,VALID,916.885,VALID,0,VALID,96.7755,VALID,-0.0169808,VALID,18.3852,VALID,123,VALID,1.11871,
2004-05-10, 03:24:00,VALID,916.882,VALID,0,VALID,96.895,VALID,0,VALID,18.385,VALID,116,VALID,1.3403,
2004-05-10, 03:25:00,VALID,916.889,VALID,0,VALID,96.9878,VALID,0,VALID,18.3986,VALID,114,VALID,1.2867,
2004-05-10, 03:26:00,VALID,916.877,VALID,0,VALID,97.0641,VALID,-0.0169808,VALID,18.4138,VALID,110,VALID,1.3417,
2004-05-10, 03:27:00,VALID,916.883,VALID,0,VALID,96.7742,VALID,0,VALID,18.4498,VALID,109,VALID,1.17543,
2004-05-10, 03:28:00,VALID,916.891,VALID,0,VALID,96.6521,VALID,-0.0339617,VALID,18.456,VALID,113,VALID,1.38633,
2004-05-10, 03:29:00,VALID,916.89,VALID,0,VALID,96.4232,VALID,-0.0339617,VALID,18.453,VALID,117,VALID,1.33384,
2004-05-10, 03:30:00,VALID,916.916,VALID,0,VALID,96.6915,VALID,-0.0339617,VALID,18.4466,VALID,113,VALID,1.54724,
2004-05-10, 03:31:00,VALID,916.909,VALID,0,VALID,96.9268,VALID,0,VALID,18.4371,VALID,113,VALID,1.52453,
2004-05-10, 03:32:00,VALID,916.905,VALID,0,VALID,97.0603,VALID,-0.0509425,VALID,18.4371,VALID,116,VALID,1.70368,
2004-05-10, 03:33:00,VALID,916.901,VALID,0,VALID,97.1188,VALID,0,VALID,18.421,VALID,115,VALID,1.67359,
2004-05-10, 03:34:00,VALID,916.901,VALID,0,VALID,97.1226,VALID,-0.0509425,VALID,18.4113,VALID,120,VALID,1.54855,
2004-05-10, 03:35:00,VALID,916.904,VALID,0,VALID,97.0425,VALID,0,VALID,18.4014,VALID,118,VALID,1.51744,